Time,TemperatureF,DewpointF,PressureIn,WindDirection,WindDirectionDegrees,WindSpeedMPH,WindSpeedGustMPH,Humidity,HourlyPrecipIn,Conditions,Clouds,dailyrainin,SolarRadiationWatts/m^2,SoftwareType,DateUTC
2013-05-31 00:00:00,63.6,47.6,29.91,SE,146,1.0,1.0,56,0.00,,,0.00,0,Wunderground v.1.15,2013-05-31 07:00:00,
2013-05-31 00:05:00,63.3,47.8,29.91,SE,146,1.0,10.0,57,0.00,,,0.00,0,Wunderground v.1.15,2013-05-31 07:05:00,
2013-05-31 00:10:00,63.2,47.7,29.91,SE,146,0.0,10.0,57,0.00,,,0.00,0,Wunderground v.1.15,2013-05-31 07:10:00,
2013-05-31 00:15:00,63.2,47.7,29.92,SE,146,0.0,10.0,57,0.00,,,0.00,0,Wunderground v.1.15,2013-05-31 07:15:00,
2013-05-31 00:20:00,63.5,48.0,29.92,SE,146,0.0,10.0,57,0.00,,,0.00,0,Wunderground v.1.15,2013-05-31 07:20:00,
2013-05-31 00:25:00,63.2,48.2,29.92,SE,146,0.0,10.0,58,0.00,,,0.00,0,Wunderground v.1.15,2013-05-31 07:25:00,
2013-05-31 00:30:00,63.2,48.2,29.92,SE,146,0.0,10.0,58,0.00,,,0.00,0,Wunderground v.1.15,2013-05-31 07:30:00,
2013-05-31 00:35:00,63.5,48.0,29.92,SE,146,0.0,10.0,57,0.00,,,0.00,0,Wunderground v.1.15,2013-05-31 07:35:00,
2013-05-31 00:40:00,63.4,47.9,29.92,SE,146,0.0,10.0,57,0.00,,,0.00,0,Wunderground v.1.15,2013-05-31 07:40:00,
2013-05-31 00:45:00,63.6,48.1,29.92,SE,146,0.0,10.0,57,0.00,,,0.00,0,Wunderground v.1.15,2013-05-31 07:45:00,
2013-05-31 00:50:00,63.5,48.0,29.92,SE,146,0.0,10.0,57,0.00,,,0.00,0,Wunderground v.1.15,2013-05-31 07:50:00,
2013-05-31 00:55:00,63.6,48.5,29.92,SE,146,0.0,10.0,58,0.00,,,0.00,0,Wunderground v.1.15,2013-05-31 07:55:00,
2013-05-31 01:00:00,63.2,48.6,29.92,SE,146,0.0,10.0,59,0.00,,,0.00,0,Wunderground v.1.15,2013-05-31 08:00:00,
2013-05-31 01:05:00,63.0,48.4,29.92,SE,146,0.0,10.0,59,0.00,,,0.00,0,Wunderground v.1.15,2013-05-31 08:05:00,
2013-05-31 01:10:00,62.7,48.6,29.92,SE,146,1.0,10.0,60,0.00,,,0.00,0,Wunderground v.1.15,2013-05-31 08:10:00,
2013-05-31 01:15:00,62.6,48.5,29.92,SE,146,1.0,10.0,60,0.00,,,0.00,0,Wunderground v.1.15,2013-05-31 08:15:00,
2013-05-31 01:20:00,62.2,48.6,29.92,SE,146,1.0,10.0,61,0.00,,,0.00,0,Wunderground v.1.15,2013-05-31 08:20:00,
2013-05-31 01:25:00,62.0,48.8,29.92,SSE,152,1.0,10.0,62,0.00,,,0.00,0,Wunderground v.1.15,2013-05-31 08:25:00,
2013-05-31 01:30:00,61.7,49.0,29.92,South,185,2.0,10.0,63,0.00,,,0.00,0,Wunderground v.1.15,2013-05-31 08:30:00,
2013-05-31 01:35:00,61.4,48.7,29.91,South,185,2.0,10.0,63,0.00,,,0.00,0,Wunderground v.1.15,2013-05-31 08:35:00,
2013-05-31 01:40:00,61.3,49.0,29.91,South,186,1.0,10.0,64,0.00,,,0.00,0,Wunderground v.1.15,2013-05-31 08:40:00,
2013-05-31 01:45:00,61.2,48.9,29.91,South,186,1.0,10.0,64,0.00,,,0.00,0,Wunderground v.1.15,2013-05-31 08:45:00,
2013-05-31 01:50:00,61.3,49.0,29.91,South,186,1.0,10.0,64,0.00,,,0.00,0,Wunderground v.1.15,2013-05-31 08:50:00,
2013-05-31 01:55:00,61.4,49.1,29.91,South,186,1.0,10.0,64,0.00,,,0.00,0,Wunderground v.1.15,2013-05-31 08:55:00,
2013-05-31 02:00:00,61.5,48.8,29.91,South,186,1.0,10.0,63,0.00,,,0.00,0,Wunderground v.1.15,2013-05-31 09:00:00,
2013-05-31 02:05:00,61.2,48.9,29.91,South,190,1.0,10.0,64,0.00,,,0.00,0,Wunderground v.1.15,2013-05-31 09:05:00,
2013-05-31 02:10:00,61.2,48.9,29.91,South,190,1.0,10.0,64,0.00,,,0.00,0,Wunderground v.1.15,2013-05-31 09:10:00,
2013-05-31 02:15:00,61.1,48.8,29.91,South,190,0.0,10.0,64,0.00,,,0.00,0,Wunderground v.1.15,2013-05-31 09:15:00,
2013-05-31 02:20:00,61.0,49.1,29.91,South,190,0.0,10.0,65,0.00,,,0.00,0,Wunderground v.1.15,2013-05-31 09:20:00,
2013-05-31 02:25:00,60.9,49.1,29.91,South,190,0.0,10.0,65,0.00,,,0.00,0,Wunderground v.1.15,2013-05-31 09:25:00,
2013-05-31 02:30:00,60.8,49.4,29.91,South,190,0.0,10.0,66,0.00,,,0.00,0,Wunderground v.1.15,2013-05-31 09:30:00,
2013-05-31 02:35:00,60.6,49.2,29.92,South,190,1.0,10.0,66,0.00,,,0.00,0,Wunderground v.1.15,2013-05-31 09:35:00,
2013-05-31 02:40:00,60.4,49.0,29.91,South,190,1.0,1.0,66,0.00,,,0.00,0,Wunderground v.1.15,2013-05-31 09:40:00,
2013-05-31 02:45:00,60.5,49.1,29.91,South,190,0.0,10.0,66,0.00,,,0.00,0,Wunderground v.1.15,2013-05-31 09:45:00,
2013-05-31 02:50:00,60.5,49.1,29.92,South,190,0.0,10.0,66,0.00,,,0.00,0,Wunderground v.1.15,2013-05-31 09:50:00,
2013-05-31 02:55:00,60.4,49.0,29.92,South,190,0.0,10.0,66,0.00,,,0.00,0,Wunderground v.1.15,2013-05-31 09:55:00,
2013-05-31 03:00:00,60.4,49.4,29.91,South,190,0.0,10.0,67,0.00,,,0.00,0,Wunderground v.1.15,2013-05-31 10:00:00,
2013-05-31 03:05:00,60.5,49.1,29.91,South,190,0.0,10.0,66,0.00,,,0.00,0,Wunderground v.1.15,2013-05-31 10:05:00,
2013-05-31 03:10:00,60.6,49.2,29.91,South,190,0.0,10.0,66,0.00,,,0.00,0,Wunderground v.1.15,2013-05-31 10:10:00,
2013-05-31 03:15:00,60.4,49.0,29.91,South,190,0.0,10.0,66,0.00,,,0.00,0,Wunderground v.1.15,2013-05-31 10:15:00,
2013-05-31 03:20:00,60.2,49.2,29.91,South,190,0.0,10.0,67,0.00,,,0.00,0,Wunderground v.1.15,2013-05-31 10:20:00,
2013-05-31 03:25:00,60.2,49.2,29.91,South,190,0.0,10.0,67,0.00,,,0.00,0,Wunderground v.1.15,2013-05-31 10:25:00,
2013-05-31 03:30:00,60.3,48.9,29.91,South,190,0.0,10.0,66,0.00,,,0.00,0,Wunderground v.1.15,2013-05-31 10:30:00,
2013-05-31 03:35:00,60.2,49.2,29.91,SW,222,1.0,10.0,67,0.00,,,0.00,0,Wunderground v.1.15,2013-05-31 10:35:00,
2013-05-31 03:40:00,60.1,49.1,29.91,WSW,252,2.0,2.0,67,0.00,,,0.00,0,Wunderground v.1.15,2013-05-31 10:40:00,
2013-05-31 03:45:00,60.0,49.0,29.91,WSW,252,2.0,10.0,67,0.00,,,0.00,0,Wunderground v.1.15,2013-05-31 10:45:00,
2013-05-31 03:50:00,59.8,49.2,29.91,WSW,252,1.0,10.0,68,0.00,,,0.00,0,Wunderground v.1.15,2013-05-31 10:50:00,
2013-05-31 03:55:00,59.6,49.0,29.91,WSW,253,2.0,10.0,68,0.00,,,0.00,0,Wunderground v.1.15,2013-05-31 10:55:00,
2013-05-31 04:00:00,59.4,49.2,29.91,WSW,253,2.0,2.0,69,0.00,,,0.00,0,Wunderground v.1.15,2013-05-31 11:00:00,
2013-05-31 04:05:00,59.3,49.1,29.91,WSW,253,2.0,10.0,69,0.00,,,0.00,0,Wunderground v.1.15,2013-05-31 11:05:00,
2013-05-31 04:10:00,59.2,49.4,29.91,WSW,253,1.0,1.0,70,0.00,,,0.00,0,Wunderground v.1.15,2013-05-31 11:10:00,
2013-05-31 04:15:00,59.3,49.5,29.92,WSW,253,1.0,10.0,70,0.00,,,0.00,0,Wunderground v.1.15,2013-05-31 11:15:00,
2013-05-31 04:20:00,59.2,49.4,29.92,WSW,253,0.0,10.0,70,0.00,,,0.00,0,Wunderground v.1.15,2013-05-31 11:20:00,
2013-05-31 04:25:00,59.1,49.3,29.92,WSW,253,0.0,10.0,70,0.00,,,0.00,0,Wunderground v.1.15,2013-05-31 11:25:00,
2013-05-31 04:30:00,59.2,49.8,29.92,WSW,253,0.0,10.0,71,0.00,,,0.00,0,Wunderground v.1.15,2013-05-31 11:30:00,
2013-05-31 04:35:00,59.1,49.3,29.92,WSW,253,0.0,10.0,70,0.00,,,0.00,0,Wunderground v.1.15,2013-05-31 11:35:00,
2013-05-31 04:55:00,58.2,49.2,29.92,WSW,253,0.0,10.0,72,0.00,,,0.00,0,Wunderground v.1.15,2013-05-31 11:55:00,
2013-05-31 04:59:00,58.7,49.3,29.92,WSW,253,0.0,10.0,71,0.00,,,0.00,0,Wunderground v.1.15,2013-05-31 11:59:00,
2013-05-31 05:00:00,58.5,49.5,29.92,WSW,253,0.0,10.0,72,0.00,,,0.00,0,Wunderground v.1.15,2013-05-31 12:00:00,
2013-05-31 05:04:00,58.4,49.4,29.92,WSW,253,0.0,10.0,72,0.00,,,0.00,0,Wunderground v.1.15,2013-05-31 12:04:00,
2013-05-31 05:09:00,58.2,49.2,29.92,WSW,253,0.0,10.0,72,0.00,,,0.00,0,Wunderground v.1.15,2013-05-31 12:09:00,
2013-05-31 05:10:00,59.0,49.6,29.92,WSW,253,0.0,10.0,71,0.00,,,0.00,0,Wunderground v.1.15,2013-05-31 12:10:00,
2013-05-31 05:15:00,59.0,49.6,29.92,WSW,253,0.0,10.0,71,0.00,,,0.00,0,Wunderground v.1.15,2013-05-31 12:15:00,
2013-05-31 05:24:00,58.7,49.7,29.92,WSW,253,0.0,10.0,72,0.00,,,0.00,0,Wunderground v.1.15,2013-05-31 12:24:00,
2013-05-31 05:25:00,59.1,50.1,29.92,WSW,253,0.0,10.0,72,0.00,,,0.00,5,Wunderground v.1.15,2013-05-31 12:25:00,
2013-05-31 05:35:00,59.2,50.2,29.93,WSW,253,0.0,10.0,72,0.00,,,0.00,11,Wunderground v.1.15,2013-05-31 12:35:00,
2013-05-31 05:39:00,58.9,49.9,29.92,WSW,253,0.0,10.0,72,0.00,,,0.00,0,Wunderground v.1.15,2013-05-31 12:39:00,
2013-05-31 05:49:00,59.1,50.1,29.93,WSW,253,0.0,10.0,72,0.00,,,0.00,9,Wunderground v.1.15,2013-05-31 12:49:00,
2013-05-31 05:55:00,59.8,50.4,29.93,WSW,253,0.0,10.0,71,0.00,,,0.00,26,Wunderground v.1.15,2013-05-31 12:55:00,
2013-05-31 05:59:00,59.3,50.3,29.93,WSW,253,0.0,10.0,72,0.00,,,0.00,14,Wunderground v.1.15,2013-05-31 12:59:00,
2013-05-31 06:00:00,59.9,50.5,29.93,WSW,253,1.0,1.0,71,0.00,,,0.00,35,Wunderground v.1.15,2013-05-31 13:00:00,
2013-05-31 06:04:00,59.4,50.0,29.93,WSW,253,0.0,10.0,71,0.00,,,0.00,16,Wunderground v.1.15,2013-05-31 13:04:00,
2013-05-31 06:09:00,59.6,50.2,29.93,WSW,253,0.0,10.0,71,0.00,,,0.00,19,Wunderground v.1.15,2013-05-31 13:09:00,
2013-05-31 06:15:00,60.5,51.4,29.93,WSW,253,0.0,10.0,72,0.00,,,0.00,70,Wunderground v.1.15,2013-05-31 13:15:00,
2013-05-31 06:20:00,60.6,51.5,29.93,West,265,1.0,10.0,72,0.00,,,0.00,86,Wunderground v.1.15,2013-05-31 13:20:00,
2013-05-31 06:24:00,60.1,50.7,29.93,WSW,253,1.0,10.0,71,0.00,,,0.00,47,Wunderground v.1.15,2013-05-31 13:24:00,
2013-05-31 06:29:00,60.3,50.9,29.93,WSW,253,0.0,10.0,71,0.00,,,0.00,60,Wunderground v.1.15,2013-05-31 13:29:00,
2013-05-31 06:44:00,61.0,51.9,29.93,WNW,285,2.0,10.0,72,0.00,,,0.00,104,Wunderground v.1.15,2013-05-31 13:44:00,
2013-05-31 06:49:00,61.4,51.9,29.93,WNW,303,2.0,10.0,71,0.00,,,0.00,123,Wunderground v.1.15,2013-05-31 13:49:00,
2013-05-31 06:59:00,62.5,51.8,29.94,WNW,297,3.0,10.0,68,0.00,,,0.00,162,Wunderground v.1.15,2013-05-31 13:59:00,
2013-05-31 07:04:00,63.0,51.5,29.94,WNW,298,3.0,10.0,66,0.00,,,0.00,183,Wunderground v.1.15,2013-05-31 14:04:00,
2013-05-31 07:09:00,63.6,51.6,29.94,West,281,3.0,10.0,65,0.00,,,0.00,199,Wunderground v.1.15,2013-05-31 14:09:00,
2013-05-31 07:14:00,64.0,51.1,29.94,WNW,296,4.0,10.0,63,0.00,,,0.00,218,Wunderground v.1.15,2013-05-31 14:14:00,
2013-05-31 07:19:00,64.4,50.7,29.94,WNW,296,4.0,10.0,61,0.00,,,0.00,234,Wunderground v.1.15,2013-05-31 14:19:00,
2013-05-31 07:24:00,64.7,50.9,29.94,WNW,288,4.0,10.0,61,0.00,,,0.00,251,Wunderground v.1.15,2013-05-31 14:24:00,
2013-05-31 07:29:00,65.0,50.3,29.94,NNW,329,4.0,10.0,59,0.00,,,0.00,265,Wunderground v.1.15,2013-05-31 14:29:00,
2013-05-31 07:34:00,65.2,49.6,29.94,NW,304,5.0,10.0,57,0.00,,,0.00,281,Wunderground v.1.15,2013-05-31 14:34:00,
2013-05-31 07:39:00,65.4,48.8,29.94,WNW,288,5.0,10.0,55,0.00,,,0.00,301,Wunderground v.1.15,2013-05-31 14:39:00,
2013-05-31 07:44:00,65.4,47.8,29.94,NW,312,7.0,10.0,53,0.00,,,0.00,315,Wunderground v.1.15,2013-05-31 14:44:00,
2013-05-31 07:54:00,66.0,48.4,29.94,West,281,7.0,10.0,53,0.00,,,0.00,350,Wunderground v.1.15,2013-05-31 14:54:00,
2013-05-31 07:59:00,66.6,48.4,29.95,West,275,5.0,10.0,52,0.00,,,0.00,366,Wunderground v.1.15,2013-05-31 14:59:00,
2013-05-31 08:04:00,66.8,48.1,29.95,WNW,294,6.0,10.0,51,0.00,,,0.00,383,Wunderground v.1.15,2013-05-31 15:04:00,
2013-05-31 08:09:00,67.1,47.3,29.95,West,275,6.0,10.0,49,0.00,,,0.00,399,Wunderground v.1.15,2013-05-31 15:09:00,
2013-05-31 08:14:00,67.5,46.0,29.95,WNW,297,7.0,10.0,46,0.00,,,0.00,413,Wunderground v.1.15,2013-05-31 15:14:00,
2013-05-31 08:19:00,67.9,46.3,29.95,West,266,8.0,8.0,46,0.00,,,0.00,432,Wunderground v.1.15,2013-05-31 15:19:00,
2013-05-31 08:24:00,67.9,45.2,29.95,NW,308,8.0,11.0,44,0.00,,,0.00,448,Wunderground v.1.15,2013-05-31 15:24:00,
2013-05-31 08:34:00,68.6,47.0,29.95,NNW,346,8.0,10.0,46,0.00,,,0.00,482,Wunderground v.1.15,2013-05-31 15:34:00,
2013-05-31 08:39:00,68.9,46.7,29.95,NNW,344,6.0,10.0,45,0.00,,,0.00,497,Wunderground v.1.15,2013-05-31 15:39:00,
2013-05-31 08:44:00,69.0,46.8,29.95,North,355,7.0,10.0,45,0.00,,,0.00,512,Wunderground v.1.15,2013-05-31 15:44:00,
2013-05-31 08:49:00,69.2,46.4,29.95,NW,323,7.0,11.0,44,0.00,,,0.00,531,Wunderground v.1.15,2013-05-31 15:49:00,
2013-05-31 08:54:00,69.7,46.2,29.95,NW,319,7.0,11.0,43,0.00,,,0.00,545,Wunderground v.1.15,2013-05-31 15:54:00,
2013-05-31 09:04:00,70.2,45.4,29.95,NW,310,7.0,10.0,41,0.00,,,0.00,577,Wunderground v.1.15,2013-05-31 16:04:00,
2013-05-31 09:09:00,69.9,46.4,29.95,WNW,288,8.0,10.0,43,0.00,,,0.00,592,Wunderground v.1.15,2013-05-31 16:09:00,
2013-05-31 09:14:00,70.3,46.1,29.95,West,278,8.0,10.0,42,0.00,,,0.00,608,Wunderground v.1.15,2013-05-31 16:14:00,
2013-05-31 09:19:00,71.0,46.7,29.95,NW,312,6.0,10.0,42,0.00,,,0.00,621,Wunderground v.1.15,2013-05-31 16:19:00,
2013-05-31 09:29:00,71.2,46.9,29.95,WNW,285,7.0,10.0,42,0.00,,,0.00,652,Wunderground v.1.15,2013-05-31 16:29:00,
2013-05-31 09:34:00,72.0,47.0,29.95,NW,304,7.0,10.0,41,0.00,,,0.00,664,Wunderground v.1.15,2013-05-31 16:34:00,
2013-05-31 09:39:00,72.7,46.3,29.95,West,273,7.0,10.0,39,0.00,,,0.00,679,Wunderground v.1.15,2013-05-31 16:39:00,
2013-05-31 09:44:00,72.8,47.1,29.95,NW,310,7.0,10.0,40,0.00,,,0.00,693,Wunderground v.1.15,2013-05-31 16:44:00,
2013-05-31 09:54:00,73.3,46.8,29.94,West,279,8.0,10.0,39,0.00,,,0.00,719,Wunderground v.1.15,2013-05-31 16:54:00,
2013-05-31 09:59:00,73.3,46.2,29.94,WNW,290,8.0,8.0,38,0.00,,,0.00,735,Wunderground v.1.15,2013-05-31 16:59:00,
2013-05-31 10:04:00,73.9,46.7,29.94,NNW,342,8.0,10.0,38,0.00,,,0.00,747,Wunderground v.1.15,2013-05-31 17:04:00,
2013-05-31 10:09:00,74.2,47.0,29.94,NW,305,8.0,8.0,38,0.00,,,0.00,759,Wunderground v.1.15,2013-05-31 17:09:00,
2013-05-31 10:14:00,74.9,46.9,29.94,WNW,294,8.0,9.0,37,0.00,,,0.00,773,Wunderground v.1.15,2013-05-31 17:14:00,
2013-05-31 10:19:00,75.3,47.2,29.94,WNW,302,8.0,10.0,37,0.00,,,0.00,786,Wunderground v.1.15,2013-05-31 17:19:00,
2013-05-31 10:24:00,75.4,46.6,29.94,North,360,8.0,10.0,36,0.00,,,0.00,798,Wunderground v.1.15,2013-05-31 17:24:00,
2013-05-31 10:34:00,76.0,46.4,29.94,WNW,288,8.0,10.0,35,0.00,,,0.00,817,Wunderground v.1.15,2013-05-31 17:34:00,
2013-05-31 10:39:00,76.3,46.6,29.94,NW,315,8.0,10.0,35,0.00,,,0.00,830,Wunderground v.1.15,2013-05-31 17:39:00,
2013-05-31 10:44:00,76.7,47.0,29.93,NW,324,8.0,10.0,35,0.00,,,0.00,838,Wunderground v.1.15,2013-05-31 17:44:00,
2013-05-31 10:49:00,77.1,45.8,29.93,WSW,258,7.0,7.0,33,0.00,,,0.00,851,Wunderground v.1.15,2013-05-31 17:49:00,
2013-05-31 10:54:00,77.9,46.5,29.93,NW,306,7.0,8.0,33,0.00,,,0.00,861,Wunderground v.1.15,2013-05-31 17:54:00,
2013-05-31 10:59:00,77.8,45.6,29.93,West,269,7.0,7.0,32,0.00,,,0.00,870,Wunderground v.1.15,2013-05-31 17:59:00,
2013-05-31 11:04:00,78.2,45.9,29.94,NW,319,7.0,14.0,32,0.00,,,0.00,881,Wunderground v.1.15,2013-05-31 18:04:00,
2013-05-31 11:14:00,78.2,45.9,29.93,West,259,8.0,10.0,32,0.00,,,0.00,896,Wunderground v.1.15,2013-05-31 18:14:00,
2013-05-31 11:24:00,79.5,45.3,29.93,West,280,7.0,11.0,30,0.00,,,0.00,912,Wunderground v.1.15,2013-05-31 18:24:00,
2013-05-31 11:29:00,79.1,45.0,29.93,NW,313,7.0,10.0,30,0.00,,,0.00,921,Wunderground v.1.15,2013-05-31 18:29:00,
2013-05-31 11:34:00,80.1,45.0,29.93,WNW,286,8.0,10.0,29,0.00,,,0.00,926,Wunderground v.1.15,2013-05-31 18:34:00,
2013-05-31 11:39:00,80.7,44.6,29.93,WNW,298,8.0,8.0,28,0.00,,,0.00,935,Wunderground v.1.15,2013-05-31 18:39:00,
2013-05-31 11:44:00,81.0,44.8,29.93,West,261,8.0,10.0,28,0.00,,,0.00,940,Wunderground v.1.15,2013-05-31 18:44:00,
2013-05-31 11:49:00,81.1,45.8,29.93,NNW,338,8.0,10.0,29,0.00,,,0.00,947,Wunderground v.1.15,2013-05-31 18:49:00,
2013-05-31 11:54:00,81.3,46.9,29.93,WNW,290,7.0,10.0,30,0.00,,,0.00,953,Wunderground v.1.15,2013-05-31 18:54:00,
2013-05-31 11:59:00,81.9,46.5,29.93,NW,324,6.0,10.0,29,0.00,,,0.00,958,Wunderground v.1.15,2013-05-31 18:59:00,
2013-05-31 12:04:00,82.4,46.0,29.93,West,273,8.0,11.0,28,0.00,,,0.00,963,Wunderground v.1.15,2013-05-31 19:04:00,
2013-05-31 12:14:00,83.2,43.7,29.93,West,264,9.0,11.0,25,0.00,,,0.00,969,Wunderground v.1.15,2013-05-31 19:14:00,
2013-05-31 12:19:00,83.4,44.9,29.92,NW,317,9.0,10.0,26,0.00,,,0.00,976,Wunderground v.1.15,2013-05-31 19:19:00,
2013-05-31 12:24:00,83.7,45.2,29.92,West,265,9.0,10.0,26,0.00,,,0.00,979,Wunderground v.1.15,2013-05-31 19:24:00,
2013-05-31 12:34:00,83.9,44.3,29.92,WNW,298,10.0,11.0,25,0.00,,,0.00,984,Wunderground v.1.15,2013-05-31 19:34:00,
2013-05-31 12:39:00,84.4,43.7,29.92,WNW,293,10.0,11.0,24,0.00,,,0.00,990,Wunderground v.1.15,2013-05-31 19:39:00,
2013-05-31 12:44:00,84.3,43.6,29.92,WNW,294,10.0,11.0,24,0.00,,,0.00,991,Wunderground v.1.15,2013-05-31 19:44:00,
2013-05-31 12:49:00,84.1,43.4,29.91,WNW,295,11.0,19.0,24,0.00,,,0.00,993,Wunderground v.1.15,2013-05-31 19:49:00,
2013-05-31 12:54:00,84.0,43.3,29.91,WNW,284,12.0,19.0,24,0.00,,,0.00,995,Wunderground v.1.15,2013-05-31 19:54:00,
2013-05-31 13:04:00,85.6,45.7,29.91,WNW,303,10.0,14.0,25,0.00,,,0.00,993,Wunderground v.1.15,2013-05-31 20:04:00,
2013-05-31 13:09:00,85.3,45.5,29.91,WNW,303,10.0,13.0,25,0.00,,,0.00,991,Wunderground v.1.15,2013-05-31 20:09:00,
2013-05-31 13:14:00,85.4,46.6,29.91,NNW,347,10.0,13.0,26,0.00,,,0.00,990,Wunderground v.1.15,2013-05-31 20:14:00,
2013-05-31 13:19:00,85.8,46.9,29.90,West,280,8.0,8.0,26,0.00,,,0.00,990,Wunderground v.1.15,2013-05-31 20:19:00,
2013-05-31 13:24:00,86.2,46.2,29.90,NNW,328,8.0,9.0,25,0.00,,,0.00,986,Wunderground v.1.15,2013-05-31 20:24:00,
2013-05-31 13:29:00,86.5,44.3,29.90,North,5,8.0,10.0,23,0.00,,,0.00,990,Wunderground v.1.15,2013-05-31 20:29:00,
2013-05-31 13:34:00,86.6,44.4,29.90,NW,321,10.0,10.0,23,0.00,,,0.00,988,Wunderground v.1.15,2013-05-31 20:34:00,
2013-05-31 13:39:00,86.7,45.6,29.90,NNW,339,10.0,16.0,24,0.00,,,0.00,984,Wunderground v.1.15,2013-05-31 20:39:00,
2013-05-31 13:44:00,86.7,45.6,29.90,NW,307,10.0,16.0,24,0.00,,,0.00,981,Wunderground v.1.15,2013-05-31 20:44:00,
2013-05-31 13:49:00,86.4,45.3,29.89,NW,315,10.0,10.0,24,0.00,,,0.00,979,Wunderground v.1.15,2013-05-31 20:49:00,
2013-05-31 13:54:00,87.0,44.7,29.89,West,280,11.0,11.0,23,0.00,,,0.00,976,Wunderground v.1.15,2013-05-31 20:54:00,
2013-05-31 13:59:00,87.4,45.1,29.90,WNW,293,12.0,13.0,23,0.00,,,0.00,972,Wunderground v.1.15,2013-05-31 20:59:00,
2013-05-31 14:04:00,87.5,44.0,29.89,WNW,300,12.0,13.0,22,0.00,,,0.00,969,Wunderground v.1.15,2013-05-31 21:04:00,
2013-05-31 14:09:00,87.8,43.0,29.89,West,279,11.0,13.0,21,0.00,,,0.00,965,Wunderground v.1.15,2013-05-31 21:09:00,
2013-05-31 14:14:00,88.1,43.2,29.89,NW,321,10.0,13.0,21,0.00,,,0.00,958,Wunderground v.1.15,2013-05-31 21:14:00,
2013-05-31 14:19:00,88.7,42.5,29.89,NW,305,9.0,9.0,20,0.00,,,0.00,954,Wunderground v.1.15,2013-05-31 21:19:00,
2013-05-31 14:29:00,88.9,41.3,29.89,NNW,335,9.0,10.0,19,0.00,,,0.00,944,Wunderground v.1.15,2013-05-31 21:29:00,
2013-05-31 14:34:00,89.0,40.0,29.89,NW,314,9.0,10.0,18,0.00,,,0.00,940,Wunderground v.1.15,2013-05-31 21:34:00,
2013-05-31 14:39:00,89.0,40.0,29.89,WNW,301,10.0,10.0,18,0.00,,,0.00,932,Wunderground v.1.15,2013-05-31 21:39:00,
2013-05-31 14:49:00,89.3,40.2,29.88,NW,315,10.0,10.0,18,0.00,,,0.00,914,Wunderground v.1.15,2013-05-31 21:49:00,
2013-05-31 14:59:00,90.2,41.0,29.88,NNW,331,9.0,10.0,18,0.00,,,0.00,902,Wunderground v.1.15,2013-05-31 21:59:00,
2013-05-31 15:04:00,90.3,41.0,29.88,NW,308,10.0,11.0,18,0.00,,,0.00,889,Wunderground v.1.15,2013-05-31 22:04:00,
2013-05-31 15:09:00,90.0,39.3,29.88,NW,317,11.0,12.0,17,0.00,,,0.00,882,Wunderground v.1.15,2013-05-31 22:09:00,
2013-05-31 15:14:00,90.0,40.8,29.88,NNW,337,11.0,12.0,18,0.00,,,0.00,874,Wunderground v.1.15,2013-05-31 22:14:00,
2013-05-31 15:24:00,90.5,41.2,29.88,NNW,331,9.0,10.0,18,0.00,,,0.00,851,Wunderground v.1.15,2013-05-31 22:24:00,
2013-05-31 15:29:00,90.7,41.4,29.87,North,5,9.0,15.0,18,0.00,,,0.00,842,Wunderground v.1.15,2013-05-31 22:29:00,
2013-05-31 15:39:00,90.9,41.5,29.86,WNW,297,9.0,12.0,18,0.00,,,0.00,823,Wunderground v.1.15,2013-05-31 22:39:00,
2013-05-31 15:49:00,91.3,40.4,29.86,NW,311,8.0,11.0,17,0.00,,,0.00,796,Wunderground v.1.15,2013-05-31 22:49:00,
2013-05-31 15:54:00,90.8,40.0,29.86,NW,308,10.0,11.0,17,0.00,,,0.00,784,Wunderground v.1.15,2013-05-31 22:54:00,
2013-05-31 15:59:00,91.0,40.1,29.86,NNW,340,10.0,10.0,17,0.00,,,0.00,775,Wunderground v.1.15,2013-05-31 22:59:00,
2013-05-31 16:04:00,91.4,38.9,29.86,NW,312,8.0,10.0,16,0.00,,,0.00,765,Wunderground v.1.15,2013-05-31 23:04:00,
2013-05-31 16:09:00,91.1,40.2,29.85,WNW,297,8.0,10.0,17,0.00,,,0.00,754,Wunderground v.1.15,2013-05-31 23:09:00,
2013-05-31 16:14:00,91.9,39.3,29.85,NW,313,8.0,10.0,16,0.00,,,0.00,745,Wunderground v.1.15,2013-05-31 23:14:00,
2013-05-31 16:19:00,91.7,37.5,29.86,WNW,300,8.0,12.0,15,0.00,,,0.00,729,Wunderground v.1.15,2013-05-31 23:19:00,
2013-05-31 16:29:00,91.8,39.2,29.85,WNW,298,8.0,10.0,16,0.00,,,0.00,698,Wunderground v.1.15,2013-05-31 23:29:00,
2013-05-31 16:34:00,91.7,42.2,29.85,NW,308,8.0,10.0,18,0.00,,,0.00,679,Wunderground v.1.15,2013-05-31 23:34:00,
2013-05-31 16:39:00,92.3,41.2,29.84,NNW,332,7.0,7.0,17,0.00,,,0.00,668,Wunderground v.1.15,2013-05-31 23:39:00,
2013-05-31 16:44:00,92.1,41.0,29.84,NNW,344,7.0,11.0,17,0.00,,,0.00,652,Wunderground v.1.15,2013-05-31 23:44:00,
2013-05-31 16:49:00,91.9,40.9,29.84,NW,321,9.0,10.0,17,0.00,,,0.00,640,Wunderground v.1.15,2013-05-31 23:49:00,
2013-05-31 16:54:00,91.7,42.2,29.84,NNW,331,10.0,10.0,18,0.00,,,0.00,624,Wunderground v.1.15,2013-05-31 23:54:00,
2013-05-31 16:59:00,91.9,40.9,29.84,NW,323,9.0,9.0,17,0.00,,,0.00,610,Wunderground v.1.15,2013-05-31 23:59:00,
2013-05-31 17:04:00,92.0,40.9,29.84,WNW,296,8.0,10.0,17,0.00,,,0.00,596,Wunderground v.1.15,2013-06-01 00:04:00,
2013-05-31 17:09:00,91.6,39.1,29.84,WNW,294,9.0,9.0,16,0.00,,,0.00,580,Wunderground v.1.15,2013-06-01 00:09:00,
2013-05-31 17:14:00,91.7,39.1,29.84,WNW,298,9.0,10.0,16,0.00,,,0.00,564,Wunderground v.1.15,2013-06-01 00:14:00,
2013-05-31 17:19:00,92.1,39.5,29.84,NW,315,7.0,7.0,16,0.00,,,0.00,548,Wunderground v.1.15,2013-06-01 00:19:00,
2013-05-31 17:29:00,91.6,40.6,29.84,WNW,291,7.0,10.0,17,0.00,,,0.00,517,Wunderground v.1.15,2013-06-01 00:29:00,
2013-05-31 17:34:00,91.7,42.2,29.84,West,264,7.0,10.0,18,0.00,,,0.00,501,Wunderground v.1.15,2013-06-01 00:34:00,
2013-05-31 17:44:00,91.8,42.3,29.83,NW,304,6.0,10.0,18,0.00,,,0.00,466,Wunderground v.1.15,2013-06-01 00:44:00,
2013-05-31 17:54:00,92.3,42.7,29.83,NW,304,6.0,8.0,18,0.00,,,0.00,431,Wunderground v.1.15,2013-06-01 00:54:00,
2013-05-31 17:59:00,92.1,43.9,29.83,NNW,336,6.0,6.0,19,0.00,,,0.00,418,Wunderground v.1.15,2013-06-01 00:59:00,
2013-05-31 18:04:00,92.0,42.4,29.83,WNW,283,6.0,10.0,18,0.00,,,0.00,401,Wunderground v.1.15,2013-06-01 01:04:00,
2013-05-31 18:09:00,92.0,42.4,29.83,WNW,290,6.0,10.0,18,0.00,,,0.00,383,Wunderground v.1.15,2013-06-01 01:09:00,
2013-05-31 18:14:00,92.0,42.4,29.83,WNW,290,7.0,10.0,18,0.00,,,0.00,366,Wunderground v.1.15,2013-06-01 01:14:00,
2013-05-31 18:19:00,92.0,40.9,29.83,NW,307,7.0,7.0,17,0.00,,,0.00,350,Wunderground v.1.15,2013-06-01 01:19:00,
2013-05-31 18:24:00,92.1,41.0,29.83,WNW,292,6.0,10.0,17,0.00,,,0.00,330,Wunderground v.1.15,2013-06-01 01:24:00,
2013-05-31 18:29:00,92.1,41.0,29.83,WNW,286,6.0,10.0,17,0.00,,,0.00,318,Wunderground v.1.15,2013-06-01 01:29:00,
2013-05-31 18:34:00,92.0,40.9,29.83,WNW,294,6.0,10.0,17,0.00,,,0.00,297,Wunderground v.1.15,2013-06-01 01:34:00,
2013-05-31 18:39:00,91.9,40.9,29.83,WNW,285,6.0,10.0,17,0.00,,,0.00,283,Wunderground v.1.15,2013-06-01 01:39:00,
2013-05-31 18:44:00,91.8,40.8,29.83,NW,322,6.0,10.0,17,0.00,,,0.00,267,Wunderground v.1.15,2013-06-01 01:44:00,
2013-05-31 18:49:00,91.6,40.6,29.83,WNW,284,6.0,6.0,17,0.00,,,0.00,250,Wunderground v.1.15,2013-06-01 01:49:00,
2013-05-31 18:54:00,91.6,40.6,29.83,WNW,296,7.0,7.0,17,0.00,,,0.00,230,Wunderground v.1.15,2013-06-01 01:54:00,
2013-05-31 18:59:00,91.5,39.0,29.83,WNW,294,7.0,10.0,16,0.00,,,0.00,211,Wunderground v.1.15,2013-06-01 01:59:00,
2013-05-31 19:04:00,91.4,38.9,29.83,West,279,7.0,10.0,16,0.00,,,0.00,192,Wunderground v.1.15,2013-06-01 02:04:00,
2013-05-31 19:09:00,91.2,38.7,29.83,WNW,301,6.0,10.0,16,0.00,,,0.00,172,Wunderground v.1.15,2013-06-01 02:09:00,
2013-05-31 19:14:00,91.2,38.7,29.83,WNW,287,6.0,10.0,16,0.00,,,0.00,148,Wunderground v.1.15,2013-06-01 02:14:00,
2013-05-31 19:19:00,91.1,38.7,29.83,West,281,6.0,6.0,16,0.00,,,0.00,134,Wunderground v.1.15,2013-06-01 02:19:00,
2013-05-31 19:24:00,91.0,38.6,29.83,WNW,286,6.0,10.0,16,0.00,,,0.00,114,Wunderground v.1.15,2013-06-01 02:24:00,
2013-05-31 19:29:00,90.8,38.4,29.83,NW,315,6.0,6.0,16,0.00,,,0.00,100,Wunderground v.1.15,2013-06-01 02:29:00,
2013-05-31 19:34:00,90.6,38.3,29.83,WNW,294,6.0,10.0,16,0.00,,,0.00,76,Wunderground v.1.15,2013-06-01 02:34:00,
2013-05-31 19:39:00,90.5,38.2,29.83,WNW,302,5.0,5.0,16,0.00,,,0.00,63,Wunderground v.1.15,2013-06-01 02:39:00,
2013-05-31 19:44:00,90.4,38.1,29.83,WNW,292,5.0,6.0,16,0.00,,,0.00,40,Wunderground v.1.15,2013-06-01 02:44:00,
2013-05-31 19:49:00,90.2,39.5,29.83,WNW,294,4.0,4.0,17,0.00,,,0.00,40,Wunderground v.1.15,2013-06-01 02:49:00,
2013-05-31 19:54:00,90.0,39.3,29.83,WNW,292,3.0,10.0,17,0.00,,,0.00,30,Wunderground v.1.15,2013-06-01 02:54:00,
2013-05-31 20:04:00,89.4,40.3,29.83,WNW,290,3.0,10.0,18,0.00,,,0.00,16,Wunderground v.1.15,2013-06-01 03:04:00,
2013-05-31 20:09:00,89.0,40.0,29.83,WNW,290,2.0,2.0,18,0.00,,,0.00,12,Wunderground v.1.15,2013-06-01 03:09:00,
2013-05-31 20:14:00,88.7,39.7,29.83,WNW,290,2.0,10.0,18,0.00,,,0.00,11,Wunderground v.1.15,2013-06-01 03:14:00,
2013-05-31 20:24:00,88.0,40.6,29.83,WNW,290,1.0,10.0,19,0.00,,,0.00,5,Wunderground v.1.15,2013-06-01 03:24:00,
2013-05-31 20:34:00,87.5,41.5,29.83,WNW,290,0.0,10.0,20,0.00,,,0.00,0,Wunderground v.1.15,2013-06-01 03:34:00,
2013-05-31 20:39:00,86.8,42.2,29.83,WNW,290,0.0,10.0,21,0.00,,,0.00,0,Wunderground v.1.15,2013-06-01 03:39:00,
2013-05-31 20:45:00,84.9,43.0,29.83,WNW,290,0.0,10.0,23,0.00,,,0.00,0,Wunderground v.1.15,2013-06-01 03:45:00,
2013-05-31 20:49:00,85.8,42.6,29.83,WNW,290,0.0,10.0,22,0.00,,,0.00,0,Wunderground v.1.15,2013-06-01 03:49:00,
2013-05-31 20:50:00,84.7,42.8,29.83,WNW,290,1.0,10.0,23,0.00,,,0.00,0,Wunderground v.1.15,2013-06-01 03:50:00,
2013-05-31 20:54:00,85.5,43.5,29.83,WNW,290,0.0,10.0,23,0.00,,,0.00,0,Wunderground v.1.15,2013-06-01 03:54:00,
2013-05-31 20:55:00,84.3,43.6,29.83,WNW,290,1.0,10.0,24,0.00,,,0.00,0,Wunderground v.1.15,2013-06-01 03:55:00,
2013-05-31 20:59:00,85.2,43.2,29.83,WNW,290,0.0,10.0,23,0.00,,,0.00,0,Wunderground v.1.15,2013-06-01 03:59:00,
2013-05-31 21:00:00,83.6,43.0,29.83,WNW,290,1.0,1.0,24,0.00,,,0.00,0,Wunderground v.1.15,2013-06-01 04:00:00,
2013-05-31 21:05:00,83.3,43.8,29.83,WNW,290,0.0,10.0,25,0.00,,,0.00,0,Wunderground v.1.15,2013-06-01 04:05:00,
2013-05-31 21:10:00,83.1,43.6,29.83,WNW,290,0.0,10.0,25,0.00,,,0.00,0,Wunderground v.1.15,2013-06-01 04:10:00,
2013-05-31 21:15:00,83.3,44.8,29.83,WNW,290,1.0,10.0,26,0.00,,,0.00,0,Wunderground v.1.15,2013-06-01 04:15:00,
2013-05-31 21:20:00,83.4,44.9,29.83,WNW,290,1.0,10.0,26,0.00,,,0.00,0,Wunderground v.1.15,2013-06-01 04:20:00,
2013-05-31 21:25:00,83.0,45.6,29.83,WNW,290,1.0,10.0,27,0.00,,,0.00,0,Wunderground v.1.15,2013-06-01 04:25:00,
2013-05-31 21:30:00,82.0,45.7,29.84,WNW,290,1.0,1.0,28,0.00,,,0.00,0,Wunderground v.1.15,2013-06-01 04:30:00,
2013-05-31 21:35:00,80.9,46.6,29.83,WNW,290,1.0,10.0,30,0.00,,,0.00,0,Wunderground v.1.15,2013-06-01 04:35:00,
2013-05-31 21:40:00,80.4,47.0,29.83,WNW,290,0.0,10.0,31,0.00,,,0.00,0,Wunderground v.1.15,2013-06-01 04:40:00,
2013-05-31 21:45:00,79.9,47.4,29.84,WNW,290,0.0,10.0,32,0.00,,,0.00,0,Wunderground v.1.15,2013-06-01 04:45:00,
2013-05-31 21:50:00,79.4,48.6,29.83,WNW,290,1.0,10.0,34,0.00,,,0.00,0,Wunderground v.1.15,2013-06-01 04:50:00,
2013-05-31 21:55:00,78.6,48.7,29.84,West,259,1.0,10.0,35,0.00,,,0.00,0,Wunderground v.1.15,2013-06-01 04:55:00,
2013-05-31 22:00:00,77.6,49.3,29.84,SW,225,2.0,2.0,37,0.00,,,0.00,0,Wunderground v.1.15,2013-06-01 05:00:00,
2013-05-31 22:05:00,76.7,49.9,29.84,SW,223,2.0,4.0,39,0.00,,,0.00,0,Wunderground v.1.15,2013-06-01 05:05:00,
2013-05-31 22:10:00,76.0,49.9,29.84,SW,223,2.0,2.0,40,0.00,,,0.00,0,Wunderground v.1.15,2013-06-01 05:10:00,
2013-05-31 22:15:00,75.6,50.2,29.84,SW,223,3.0,3.0,41,0.00,,,0.00,0,Wunderground v.1.15,2013-06-01 05:15:00,
2013-05-31 22:20:00,75.3,50.6,29.84,SW,221,2.0,10.0,42,0.00,,,0.00,0,Wunderground v.1.15,2013-06-01 05:20:00,
2013-05-31 22:25:00,74.6,50.6,29.84,SW,218,3.0,10.0,43,0.00,,,0.00,0,Wunderground v.1.15,2013-06-01 05:25:00,
2013-05-31 22:30:00,74.0,50.7,29.84,SSW,207,4.0,4.0,44,0.00,,,0.00,0,Wunderground v.1.15,2013-06-01 05:30:00,
2013-05-31 22:35:00,73.6,50.3,29.84,SW,215,4.0,10.0,44,0.00,,,0.00,0,Wunderground v.1.15,2013-06-01 05:35:00,
2013-05-31 22:40:00,73.1,50.5,29.84,SW,215,3.0,3.0,45,0.00,,,0.00,0,Wunderground v.1.15,2013-06-01 05:40:00,
2013-05-31 22:45:00,72.7,50.7,29.84,SW,215,2.0,10.0,46,0.00,,,0.00,0,Wunderground v.1.15,2013-06-01 05:45:00,
2013-05-31 22:50:00,72.2,50.8,29.84,SW,214,2.0,10.0,47,0.00,,,0.00,0,Wunderground v.1.15,2013-06-01 05:50:00,
2013-05-31 22:55:00,71.7,50.4,29.84,SW,214,2.0,10.0,47,0.00,,,0.00,0,Wunderground v.1.15,2013-06-01 05:55:00,
2013-05-31 23:00:00,71.4,50.7,29.84,SW,214,2.0,10.0,48,0.00,,,0.00,0,Wunderground v.1.15,2013-06-01 06:00:00,
2013-05-31 23:05:00,71.3,50.6,29.84,SW,214,3.0,10.0,48,0.00,,,0.00,0,Wunderground v.1.15,2013-06-01 06:05:00,
2013-05-31 23:10:00,71.1,51.0,29.84,SW,214,2.0,2.0,49,0.00,,,0.00,0,Wunderground v.1.15,2013-06-01 06:10:00,
2013-05-31 23:15:00,70.8,50.7,29.84,SW,214,2.0,3.0,49,0.00,,,0.00,0,Wunderground v.1.15,2013-06-01 06:15:00,
2013-05-31 23:20:00,70.6,51.1,29.84,SW,214,2.0,2.0,50,0.00,,,0.00,0,Wunderground v.1.15,2013-06-01 06:20:00,
2013-05-31 23:25:00,70.5,51.0,29.84,SW,214,2.0,3.0,50,0.00,,,0.00,0,Wunderground v.1.15,2013-06-01 06:25:00,
2013-05-31 23:30:00,70.5,51.0,29.84,SW,214,2.0,10.0,50,0.00,,,0.00,0,Wunderground v.1.15,2013-06-01 06:30:00,
2013-05-31 23:35:00,70.4,50.9,29.84,SW,215,2.0,10.0,50,0.00,,,0.00,0,Wunderground v.1.15,2013-06-01 06:35:00,
2013-05-31 23:40:00,70.2,51.2,29.84,SW,215,1.0,10.0,51,0.00,,,0.00,0,Wunderground v.1.15,2013-06-01 06:40:00,
2013-05-31 23:45:00,70.0,51.0,29.84,SW,215,1.0,10.0,51,0.00,,,0.00,0,Wunderground v.1.15,2013-06-01 06:45:00,
2013-05-31 23:50:00,69.7,51.3,29.84,SW,215,1.0,10.0,52,0.00,,,0.00,0,Wunderground v.1.15,2013-06-01 06:50:00,
2013-05-31 23:55:00,69.6,51.7,29.84,SW,215,1.0,10.0,53,0.00,,,0.00,0,Wunderground v.1.15,2013-06-01 06:55:00,